map of ORK home
ORK - Airport
Location
City:  Cork, County Cork, Munster, Ireland
Name:Cork International Airport
ICAO:EICK
IATA:ORK

Details
Type:Airport (Aerodrome, Airfield)
Use:International (customs port of entry)
Latitude:5150'29"N (51.841389)
Longitude:829'28"W (-8.491110)
Elevation:502 ft (153 m)
Variation:3.54W (WMM2015 magnetic declination)
0.16 annual change
Runways:2
Longest:6998 × 148 ft (2133 × 45 m), paved

Time
Time Zone:UTC+0 (DST+1)
Local Time:

Weather
METAR:EICK 220230Z 35011KT 9999 FEW011 BKN038 BKN050 08/07 Q1021 NOSIG
TAF:EICK 211100Z 2112/2212 33007KT 9999 FEW005 BKN017
BECMG 2112/2114 01012KT
TEMPO 2112/2117 5000 -RADZ BR BKN005
TEMPO 2117/2202 BKN012
BECMG 2209/2212 01007KT

Related Locations
Nearby:
Farthest:SZS: 12057 mi / 19404 km
Ryan's Creek, Stewart Island, STL, NZ

Find:

   beyond  
but within

Other Information
Maps:
NOTAMs:
Links:
Sources:

  
flag of Ireland
flag of Munster
  

Sectional Chart

Flight Planning
at skyvector.com

Satellite Image

Google Maps Satellite view

 

Copyright © 2004-2018 Karl L. Swartz. All rights reserved.
The Great Circle Mapper name and logo are trademarks of the Great Circle Mapper.
All other trademarks mentioned herein belong to their respective owners.
Please see credits for attibutions and further copyright information.

  Follow gcmap on Facebook Follow gcmap on Twitter Follow gcmap on Google+ GCmap on LinkedIn

hCard Microformat

Geo Microformat